When you browse on this site, cookies collect data to enhance your experience and personalize the content and advertising you see.
Visit our Privacy Policy to learn more. By continuing to use the site, you agree to this use of cookies and data.
  • Em Portugal
  • Lista de países
  • Para 7 dias
  • Temperatura da água
  • Mapas de satélite
  • Mapa do tempo
  • Widgets de tempo
  • user-avatar
    Iniciar Sessão

    Previsão horária em Slawomierz

    Hoje, 24 Março, Domingo

    Tempo Temperatura Precipitação Vento Pressão Humidade
    00:00 +4°C° 0 mm 3 m/s 765 mmHg 83%
    01:00 +3°C° 0 mm 3 m/s 765 mmHg 83%
    02:00 +3°C° 0 mm 3 m/s 765 mmHg 82%
    03:00 +3°C° 0 mm 3 m/s 765 mmHg 81%
    04:00 +4°C° 0 mm 2 m/s 765 mmHg 80%
    05:00 +3°C° 0 mm 3 m/s 765 mmHg 80%
    06:00 +3°C° 0 mm 3 m/s 765 mmHg 80%
    07:00 +3°C° 0 mm 3 m/s 764 mmHg 80%
    08:00 +4°C° 0 mm 3 m/s 764 mmHg 75%
    09:00 +5°C° 0 mm 3 m/s 764 mmHg 70%
    10:00 +7°C° 0 mm 3 m/s 764 mmHg 65%
    11:00 +7°C° 0 mm 3 m/s 764 mmHg 62%
    12:00 +8°C° 0 mm 3 m/s 763 mmHg 59%
    13:00 +8°C° 0 mm 3 m/s 763 mmHg 56%
    14:00 +8°C° 0 mm 3 m/s 762 mmHg 56%
    15:00 +8°C° 0 mm 3 m/s 761 mmHg 56%
    16:00 +8°C° 0 mm 3 m/s 761 mmHg 57%
    17:00 +5°C° 0 mm 3 m/s 760 mmHg 62%
    18:00 +5°C° 0 mm 2 m/s 760 mmHg 67%
    19:00 +5°C° 0 mm 1 m/s 759 mmHg 72%
    20:00 +5°C° 0 mm 1 m/s 759 mmHg 74%
    21:00 +3°C° 0 mm 2 m/s 759 mmHg 75%
    22:00 +3°C° 0 mm 2 m/s 758 mmHg 76%
    23:00 +3°C° 0 mm 2 m/s 758 mmHg 76%

    Amanhã, 25 Março, Segunda-feira

    Tempo Temperatura Precipitação Vento Pressão Humidade
    00:00 +3°C° 0 mm 2 m/s 757 mmHg 76%
    01:00 +2°C° 0 mm 3 m/s 756 mmHg 76%
    02:00 +2°C° 0 mm 3 m/s 756 mmHg 78%
    03:00 +1°C° 0 mm 3 m/s 755 mmHg 79%
    04:00 +1°C° 0 mm 3 m/s 754 mmHg 81%
    05:00 0°C° 0 mm 4 m/s 753 mmHg 80%
    06:00 0°C° 0 mm 4 m/s 753 mmHg 78%
    07:00 0°C° 0 mm 4 m/s 752 mmHg 77%
    08:00 +1°C° 0.7 mm 4 m/s 752 mmHg 80%
    09:00 +1°C° 0.7 mm 4 m/s 752 mmHg 83%
    10:00 +1°C° 0.7 mm 4 m/s 753 mmHg 86%
    11:00 +3°C° 0.3 mm 4 m/s 753 mmHg 81%
    12:00 +3°C° 0.3 mm 5 m/s 753 mmHg 75%
    13:00 +5°C° 0.3 mm 5 m/s 753 mmHg 70%
    14:00 +5°C° 0.1 mm 5 m/s 754 mmHg 69%
    15:00 +5°C° 0.1 mm 5 m/s 754 mmHg 68%
    16:00 +5°C° 0.1 mm 5 m/s 755 mmHg 67%
    17:00 +4°C° 0 mm 4 m/s 755 mmHg 72%
    18:00 +3°C° 0 mm 4 m/s 756 mmHg 78%
    19:00 +3°C° 0 mm 3 m/s 757 mmHg 84%
    20:00 +2°C° 0 mm 3 m/s 758 mmHg 88%
    21:00 +2°C° 0 mm 3 m/s 759 mmHg 92%
    22:00 +1°C° 0 mm 3 m/s 760 mmHg 96%
    23:00 +2°C° 0 mm 2 m/s 760 mmHg 96%

    Depois de amanhã, 26 Março, Terça-feira

    Tempo Temperatura Precipitação Vento Pressão Humidade
    00:00 +1°C° 0 mm 2 m/s 761 mmHg 96%
    01:00 +2°C° 0 mm 1 m/s 762 mmHg 96%
    02:00 +2°C° 0 mm 1 m/s 762 mmHg 96%
    03:00 -1°C° 0 mm 2 m/s 762 mmHg 95%
    04:00 -1°C° 0 mm 2 m/s 762 mmHg 94%
    05:00 +1°C° 0 mm 2 m/s 762 mmHg 93%
    06:00 0°C° 0 mm 3 m/s 762 mmHg 92%
    07:00 0°C° 0 mm 4 m/s 762 mmHg 90%
    08:00 +1°C° 0 mm 4 m/s 762 mmHg 83%
    09:00 +2°C° 0 mm 5 m/s 762 mmHg 76%
    10:00 +4°C° 0 mm 6 m/s 762 mmHg 68%
    11:00 +4°C° 0 mm 6 m/s 762 mmHg 69%
    12:00 +4°C° 0 mm 6 m/s 762 mmHg 70%
    13:00 +3°C° 0 mm 6 m/s 762 mmHg 71%
    14:00 +4°C° 0 mm 6 m/s 762 mmHg 69%
    15:00 +4°C° 0 mm 6 m/s 762 mmHg 67%
    16:00 +4°C° 0 mm 6 m/s 763 mmHg 65%
    17:00 +3°C° 0 mm 5 m/s 763 mmHg 71%
    18:00 +3°C° 0 mm 4 m/s 763 mmHg 76%
    19:00 +2°C° 0 mm 3 m/s 763 mmHg 82%
    20:00 +2°C° 0 mm 3 m/s 763 mmHg 85%
    21:00 +2°C° 0 mm 2 m/s 763 mmHg 88%
    22:00 +2°C° 0 mm 2 m/s 764 mmHg 91%
    23:00 +2°C° 0 mm 2 m/s 764 mmHg 90%

    27 Março, Quarta-feira

    Tempo Temperatura Precipitação Vento Pressão Humidade
    00:00 +1°C° 0 mm 2 m/s 764 mmHg 89%
    01:00 +1°C° 0 mm 2 m/s 764 mmHg 88%
    02:00 0°C° 0 mm 3 m/s 764 mmHg 90%
    03:00 +1°C° 0 mm 3 m/s 764 mmHg 91%
    04:00 +1°C° 0 mm 3 m/s 764 mmHg 93%
    05:00 0°C° 0 mm 4 m/s 763 mmHg 93%
    06:00 +1°C° 0 mm 4 m/s 763 mmHg 93%
    07:00 +1°C° 0 mm 5 m/s 763 mmHg 94%
    08:00 +2°C° 0.2 mm 5 m/s 763 mmHg 92%
    09:00 +2°C° 0.2 mm 5 m/s 763 mmHg 90%
    10:00 +3°C° 0.2 mm 5 m/s 763 mmHg 87%
    11:00 +3°C° 0.2 mm 5 m/s 763 mmHg 88%
    12:00 +5°C° 0.2 mm 5 m/s 763 mmHg 89%
    13:00 +5°C° 0.2 mm 5 m/s 763 mmHg 89%
    14:00 +5°C° 0.1 mm 5 m/s 764 mmHg 91%
    15:00 +5°C° 0.1 mm 4 m/s 764 mmHg 92%
    16:00 +5°C° 0.1 mm 3 m/s 764 mmHg 93%
    17:00 +5°C° 0.1 mm 3 m/s 764 mmHg 94%
    18:00 +6°C° 0.1 mm 2 m/s 764 mmHg 96%
    19:00 +6°C° 0.1 mm 2 m/s 764 mmHg 97%
    20:00 +5°C° 0 mm 2 m/s 765 mmHg 97%
    21:00 +6°C° 0 mm 1 m/s 765 mmHg 96%
    22:00 +5°C° 0 mm 1 m/s 765 mmHg 96%
    23:00 +5°C° 0 mm 1 m/s 765 mmHg 96%

    28 Março, Quinta-feira

    Tempo Temperatura Precipitação Vento Pressão Humidade
    00:00 +4°C° 0 mm 1 m/s 766 mmHg 96%
    01:00 +4°C° 0 mm 1 m/s 766 mmHg 96%
    02:00 +4°C° 0 mm 1 m/s 766 mmHg 96%
    03:00 +4°C° 0 mm 1 m/s 766 mmHg 96%
    04:00 +4°C° 0 mm 1 m/s 766 mmHg 96%
    05:00 +4°C° 0 mm 1 m/s 767 mmHg 96%
    06:00 +4°C° 0 mm 1 m/s 767 mmHg 95%
    07:00 +5°C° 0 mm 1 m/s 767 mmHg 95%
    08:00 +7°C° 0 mm 1 m/s 767 mmHg 88%
    09:00 +9°C° 0 mm 1 m/s 768 mmHg 81%
    10:00 +10°C° 0 mm 1 m/s 768 mmHg 74%
    11:00 +11°C° 0 mm 1 m/s 768 mmHg 69%
    12:00 +12°C° 0 mm 1 m/s 768 mmHg 65%
    13:00 +13°C° 0 mm 1 m/s 768 mmHg 60%
    14:00 +13°C° 0 mm 2 m/s 768 mmHg 62%
    15:00 +13°C° 0 mm 2 m/s 768 mmHg 64%
    16:00 +13°C° 0 mm 2 m/s 767 mmHg 66%
    17:00 +10°C° 0 mm 2 m/s 767 mmHg 74%
    18:00 +10°C° 0 mm 1 m/s 767 mmHg 81%
    19:00 +8°C° 0 mm 1 m/s 767 mmHg 89%
    20:00 +8°C° 0 mm 1 m/s 767 mmHg 90%
    21:00 +7°C° 0 mm 1 m/s 768 mmHg 91%
    22:00 +7°C° 0 mm 1 m/s 768 mmHg 92%
    23:00 +6°C° 0 mm 1 m/s 768 mmHg 92%

    29 Março, Sexta-feira

    Tempo Temperatura Precipitação Vento Pressão Humidade
    00:00 +6°C° 0 mm 1 m/s 768 mmHg 92%
    01:00 +6°C° 0 mm 1 m/s 768 mmHg 92%
    02:00 +5°C° 0 mm 2 m/s 768 mmHg 93%
    03:00 +4°C° 0 mm 2 m/s 768 mmHg 93%
    04:00 +4°C° 0 mm 2 m/s 767 mmHg 94%
    05:00 +5°C° 0 mm 2 m/s 767 mmHg 94%
    06:00 +5°C° 0 mm 2 m/s 767 mmHg 94%
    07:00 +6°C° 0 mm 2 m/s 768 mmHg 94%
    08:00 +7°C° 0 mm 3 m/s 768 mmHg 87%
    09:00 +9°C° 0 mm 3 m/s 768 mmHg 81%
    10:00 +11°C° 0 mm 3 m/s 768 mmHg 75%
    11:00 +11°C° 0 mm 4 m/s 767 mmHg 72%
    12:00 +12°C° 0 mm 4 m/s 767 mmHg 68%
    13:00 +12°C° 0 mm 4 m/s 767 mmHg 65%
    14:00 +12°C° 0 mm 4 m/s 767 mmHg 66%
    15:00 +12°C° 0 mm 3 m/s 766 mmHg 66%
    16:00 +12°C° 0 mm 3 m/s 766 mmHg 67%
    17:00 +11°C° 0 mm 3 m/s 766 mmHg 73%
    18:00 +10°C° 0 mm 2 m/s 766 mmHg 79%
    19:00 +8°C° 0 mm 2 m/s 766 mmHg 85%
    20:00 +8°C° 0 mm 2 m/s 766 mmHg 87%
    21:00 +7°C° 0 mm 2 m/s 766 mmHg 89%
    22:00 +7°C° 0 mm 3 m/s 766 mmHg 90%
    23:00 +7°C° 0 mm 3 m/s 766 mmHg 89%
    Mostrar mais